Regional Weather Roundup
Issued by NWS

Home | Current Version | Previous Version | Graphics & Text | Print | Product List | Glossary Off
Versions: 1 2 3 4 5 6 7 8 9 10 11 12 13 14 15 16 17 18 19 20 21 22 23 24 25 26 27 28 29 30 31 32 33 34 35 36 37 38 39 40 41 42 43 44 45 46 47 48 49 50

624
ASUS43 KMKX 080821
RWRWI

WISCONSIN REGIONAL WEATHER ROUNDUP
NATIONAL WEATHER SERVICE MILWAUKEE/SULLIVAN WI
200 AM CST MON FEB 08 2016

NOTE: "FAIR" INDICATES FEW OR NO CLOUDS BELOW 12,000 FEET WITH NO
SIGNIFICANT WEATHER AND/OR OBSTRUCTIONS TO VISIBILITY.

WIZ001-002-006>008-014>016-023>028-080900-
NORTHWEST WISCONSIN

CITY           SKY/WX    TMP DP  RH WIND       PRES   REMARKS
SUPERIOR ARPT  CLOUDY    17  10  75 NW15G21   29.74R WCI   2
ASHLAND        LGT SNOW  25  24  96 N6        29.65R FOG     WCI  18
HAYWARD        CLOUDY    19  14  81 VRB6      29.65R WCI  11
SIREN          LGT SNOW  16  10  80 NW13      29.73S WCI   2
CUMBERLAND     FLURRIES  18  10  73 NW18      29.67S WCI   2
RICE LAKE      LGT SNOW  18  11  77 NW14G21   29.69S WCI   4
CHETEK         LGT SNOW  18  13  81 NW7       29.67S WCI   9
LADYSMITH      LGT SNOW  22  19  87 NW12      29.63S WCI  10
EAU CLAIRE     FLURRIES  19  11  70 NW13      29.68R WCI   6
MENOMONIE      CLOUDY    19  11  72 NW18      29.70R WCI   4
NEW RICHMOND   LGT SNOW  16  10  78 NW18      29.73S WCI  -1
OSCEOLA        LGT SNOW  16  11  82 NW10      29.78S WCI   4
$$

WIZ003>005-009-010-017-018-080900-
NORTH CENTRAL WISCONSIN

CITY           SKY/WX    TMP DP  RH WIND       PRES   REMARKS
MANITOWISH WTR LGT SNOW  26  25  97 W5        29.51S WCI  20
ARBOR VITAE    CLOUDY    29  26  88 W7        29.52R WCI  22
WOODRUFF       CLOUDY    29  26  88 W7        29.52R WCI  22
RHINELANDER    LGT SNOW  27  23  85 W9        29.52S FOG     WCI  18
EAGLE RIVER    LGT SNOW  29  27  94 W6        29.51R WCI  23
LAND O LAKES   LGT SNOW  29  28  96 CALM      29.52R
PHILLIPS       LGT SNOW  23  20  91 W6        29.56R WCI  15
TOMAHAWK       LGT SNOW  26  22  87 W7        29.55S WCI  18
MEDFORD        LGT SNOW  22  20  92 W9        29.57R WCI  11
MERRILL        LGT SNOW  27  23  87 NW8G16    29.56S WCI  18
$$

WIZ029-030-035-036-043>047-080900-
CENTRAL WISCONSIN

CITY           SKY/WX    TMP DP  RH WIND       PRES   REMARKS
WAUSAU         FLURRIES  28  24  85 W10       29.55R WCI  19
MOSINEE        CLOUDY    27  25  93 W10       29.57S WCI  17
MARSHFIELD     LGT SNOW  24  18  77 NW16      29.57S WCI  11
STEVENS POINT  CLOUDY    27  22  83 W8        29.57S WCI  18
WAUPACA        CLOUDY    34  28  77 W7        29.57R WCI  28
WAUTOMA        CLOUDY    31  26  81 W14       29.59S WCI  21
WISC RAPIDS    CLOUDY    27  21  78 NW9       29.60S WCI  18
CAMP DOUGLAS   LGT SNOW  25  25 100 W16       29.62R FOG     WCI  12
$$

WIZ011>013-019>022-031-037>040-048>050-080900-
NORTHEAST WISCONSIN

CITY           SKY/WX    TMP DP  RH WIND       PRES   REMARKS
ANTIGO         CLOUDY    28  26  91 W13       29.52S WCI  18
SHAWANO        CLOUDY    37  31  81 W3        29.54S
OCONTO         CLOUDY    34  28  80 CALM      29.54S
STURGEON BAY   CLOUDY    34  27  75 SW6       29.57S WCI  29
GREEN BAY      CLOUDY    34  28  79 SW5       29.55F WCI  30
MANITOWOC      CLOUDY    33  27  78 SW7       29.57F WCI  27
APPLETON       CLOUDY    32  30  93 SW8       29.54S FOG     WCI  25
CLINTONVILLE   CLOUDY    34  32  93 W7        29.55S WCI  28
OSHKOSH        CLOUDY    34  28  79 CALM      29.56S
$$

WIZ032>034-041-042-053>061-080900-
SOUTHWEST WISCONSIN

CITY           SKY/WX    TMP DP  RH WIND       PRES   REMARKS
LA CROSSE      LGT SNOW  22  16  78 NW17      29.69S WCI   8
SPARTA         LGT SNOW  24  21  91 NW13      29.67R WCI  12
VIROQUA        CLOUDY    21  19  93 NW13      29.63S WCI   8
BOSCOBEL       CLOUDY    28  17  63 W12G18    29.67S WCI  18
PRAIRIE DU CHI LGT SNOW  24  19  83 W18G25    29.70R WCI  10
PLATTEVILLE    CLOUDY    29  23  80 W15       29.64F WCI  17
$$

WIZ056-057-062-063-064-067-068-080900-
SOUTH CENTRAL WISCONSIN

CITY           SKY/WX    TMP DP  RH WIND       PRES   REMARKS
REEDSBURG      CLOUDY    29  24  79 NW12G17   29.60R WCI  20
BARABOO/DELLS  CLOUDY    29  24  80 NW12G20   29.59S WCI  20
LONE ROCK      CLOUDY    30  22  72 W16       29.64R WCI  19
MINERAL POINT  CLOUDY    30  21  69 W15G22    29.62S WCI  19
MADISON        CLOUDY    33  31  92 VRB5      29.58F WCI  29
MIDDLETON      CLOUDY    34  32  90 W13G18    29.59S WCI  25
WATERTOWN      CLOUDY    32  32 100 SW6       29.58F WCI  27
MONROE         CLOUDY    32  28  86 W20G25    29.60S WCI  20
JANESVILLE     FLURRIES  32  32 100 SW6       29.60F WCI  26
$$

WIZ051-052-058>065-066-070>072-080900-
SOUTHEAST WISCONSIN

CITY           SKY/WX    TMP DP  RH WIND       PRES   REMARKS
MILWAUKEE      PTCLDY    30  26  85 SW8       29.60F WCI  22
WAUKESHA       CLOUDY    30  28  93 SW7       29.60F WCI  23
MILWAUKEE/TIMM CLOUDY    32  27  80 SW5       29.61S WCI  27
RACINE         CLEAR     30  25  81 SW7       29.62F WCI  23
BURLINGTON     MOCLDY    28  26  89 SW5       29.61S WCI  23
KENOSHA        CLEAR     30  26  85 SW10      29.61F WCI  21
FOND DU LAC    CLOUDY    33  28  81 SW7       29.56F WCI  27
SHEBOYGAN      CLOUDY    30  26  85 S6        29.58S WCI  24
WEST BEND      CLOUDY    32  28  86 CALM      29.58S
JUNEAU         CLOUDY    32  30  91 SW7       29.58F WCI  26
$$

LSZ147-162-080900-
LAKE SUPERIOR

STATION/POSITION TIME  TEMP    WIND        PRES    WAVE
                       AIR SEA DIR/SP/G            HT/PER
                 (UTC) (F)     (DEG/KT/KT) (MB)    (FT/S)
DEVILS ISLAND    0800   23     350/ 21/ 22 1005.4R
PORT WING        0740   27     340/ 19/ 22 1004.7R
SAXON HARBOR     0700   28                 1002.4R
$$

LMZ867-665-643>646-080900-
LAKE MICHIGAN

STATION/POSITION TIME  TEMP    WIND        PRES    WAVE
                       AIR SEA DIR/SP/G            HT/PER
                 (UTC) (F)     (DEG/KT/KT) (MB)    (FT/S)
CHAMBERS ISLAND  0700   34     180/  6/  9 1001.0F
NORTHPORT PIER   0700   36     210/  1/  8 1001.0F
KEWAUNEE LAKESHO 0800   34     250/  4/  7 1000.3F
SHEBOYGAN LAKESH 0800   33     230/  9/ 10 1002.4F
PORT WASHINGTON  0740   32     240/  4/  7 1003.4F
MILWAUKEE LAKESH 0810   33     240/ 10/ 11   N/A
KENOSHA   LAKESH 0800   33     230/  8/ 10 1003.4F
$$

TC  - TEMPERATURE IN CELSIUS
VSB - VISIBILITY IN STATUTE MILES
WCI - WIND CHILL INDEX
HX  - HEAT INDEX





USA.gov is the U.S. government's official web portal to all federal, state and local government web resources and services.